| time (UTC) | temp F | wind direction | speed knots | gust knots | rain 1hr in | rain 24hr in | rain mn in | humidity % | barometer mb |
| 20260506031905 | 52 | 27 | 2.6 | 5.2 | 0.00 | 0.00 | 0.00 | 74 | 1012.0 |
| 20260506031405 | 53 | 35 | 4.3 | 7.0 | 0.00 | 0.00 | 0.00 | 74 | 1012.0 |
| 20260506025904 | 53 | 43 | 3.5 | 7.0 | 0.00 | 0.00 | 0.00 | 72 | 1012.0 |
| 20260506025404 | 53 | 50 | 2.6 | 7.0 | 0.00 | 0.00 | 0.00 | 72 | 1012.0 |
| 20260506024903 | 53 | 39 | 1.7 | 10.4 | 0.00 | 0.00 | 0.00 | 73 | 1012.0 |
| 20260506024403 | 53 | 41 | 2.6 | 7.0 | 0.00 | 0.00 | 0.00 | 73 | 1012.0 |
| 20260506023904 | 53 | 61 | 1.7 | 5.2 | 0.00 | 0.00 | 0.00 | 74 | 1011.9 |
| 20260506022904 | 53 | 51 | 2.6 | 6.1 | 0.00 | 0.00 | 0.00 | 75 | 1011.9 |
| 20260506022404 | 53 | 35 | 3.5 | 7.0 | 0.00 | 0.00 | 0.00 | 75 | 1011.9 |
| 20260506021405 | 53 | 64 | 2.6 | 5.2 | 0.00 | 0.00 | 0.00 | 75 | 1011.9 |
| 20260506020903 | 53 | 56 | 2.6 | 6.1 | 0.00 | 0.00 | 0.00 | 75 | 1011.9 |
| 20260506020404 | 53 | 52 | 2.6 | 6.1 | 0.00 | 0.00 | 0.00 | 74 | 1012.0 |
| 20260506015903 | 53 | 48 | 2.6 | 6.1 | 0.00 | 0.00 | 0.00 | 74 | 1012.0 |
| 20260506015405 | 53 | 49 | 3.5 | 7.0 | 0.00 | 0.00 | 0.00 | 73 | 1012.0 |
| 20260506014904 | 54 | 37 | 3.5 | 10.4 | 0.00 | 0.00 | 0.00 | 73 | 1012.0 |
| 20260506014403 | 54 | 64 | 2.6 | 5.2 | 0.00 | 0.00 | 0.00 | 73 | 1012.0 |
| 20260506013905 | 54 | 53 | 2.6 | 5.2 | 0.00 | 0.00 | 0.00 | 72 | 1012.1 |
| 20260506012404 | 54 | 49 | 2.6 | 7.8 | 0.00 | 0.00 | 0.00 | 71 | 1012.1 |
| 20260506011903 | 54 | 40 | 4.3 | 7.8 | 0.00 | 0.00 | 0.00 | 70 | 1012.1 |
| 20260506011403 | 54 | 52 | 3.5 | 7.0 | 0.00 | 0.00 | 0.00 | 70 | 1012.1 |
| 20260506010904 | 54 | 37 | 1.7 | 7.8 | 0.00 | 0.00 | 0.00 | 69 | 1012.1 |
| 20260506010404 | 54 | 53 | 4.3 | 10.4 | 0.00 | 0.00 | 0.00 | 69 | 1012.1 |
| 20260506005904 | 54 | 48 | 1.7 | 7.8 | 0.00 | 0.00 | 0.00 | 69 | 1012.1 |
| 20260506005404 | 54 | 62 | 2.6 | 7.0 | 0.00 | 0.00 | 0.00 | 69 | 1012.1 |
| 20260506004903 | 54 | 61 | 3.5 | 7.0 | 0.00 | 0.00 | 0.00 | 69 | 1012.0 |
| 20260506004403 | 54 | 52 | 4.3 | 8.7 | 0.00 | 0.00 | 0.00 | 68 | 1012.0 |
| 20260506003904 | 54 | 51 | 5.2 | 13.0 | 0.00 | 0.00 | 0.00 | 68 | 1012.1 |
| 20260506003404 | 55 | 55 | 4.3 | 10.4 | 0.00 | 0.00 | 0.00 | 68 | 1012.0 |
| 20260506002904 | 55 | 44 | 1.7 | 4.3 | 0.00 | 0.00 | 0.00 | 67 | 1012.1 |
| 20260506002404 | 55 | 79 | 2.6 | 7.0 | 0.00 | 0.00 | 0.00 | 66 | 1012.1 |
| 20260506001904 | 55 | 58 | 4.3 | 10.4 | 0.00 | 0.00 | 0.00 | 66 | 1012.2 |
| 20260506001403 | 55 | 62 | 3.5 | 7.0 | 0.00 | 0.00 | 0.00 | 66 | 1012.1 |
| 20260506000404 | 55 | 77 | 3.5 | 11.3 | 0.00 | 0.00 | 0.00 | 65 | 1012.0 |
| 20260505235903 | 55 | 72 | 4.3 | 8.7 | 0.00 | 0.00 | 0.00 | 65 | 1012.1 |
| 20260505235403 | 55 | 52 | 4.3 | 10.4 | 0.00 | 0.00 | 0.00 | 66 | 1012.0 |
| 20260505234904 | 56 | 63 | 3.5 | 7.8 | 0.00 | 0.00 | 0.00 | 67 | 1012.0 |
| 20260505234404 | 56 | 78 | 2.6 | 7.8 | 0.00 | 0.00 | 0.00 | 66 | 1012.0 |
| 20260505233904 | 56 | 75 | 2.6 | 7.0 | 0.00 | 0.00 | 0.00 | 65 | 1012.0 |
| 20260505233404 | 56 | 72 | 5.2 | 10.4 | 0.00 | 0.00 | 0.00 | 64 | 1012.0 |
| 20260505232904 | 56 | 51 | 2.6 | 8.7 | 0.00 | 0.00 | 0.00 | 65 | 1012.0 |
| 20260505231904 | 56 | 65 | 5.2 | 11.3 | 0.00 | 0.00 | 0.00 | 65 | 1011.9 |
| 20260505231404 | 56 | 45 | 3.5 | 8.7 | 0.00 | 0.00 | 0.00 | 70 | 1011.9 |
| 20260505230905 | 56 | 60 | 3.5 | 10.4 | 0.00 | 0.00 | 0.00 | 71 | 1011.9 |
| 20260505230403 | 56 | 52 | 3.5 | 7.8 | 0.00 | 0.00 | 0.00 | 72 | 1011.8 |
| 20260505225904 | 56 | 53 | 2.6 | 6.1 | 0.00 | 0.00 | 0.00 | 73 | 1011.8 |
| 20260505225404 | 56 | 38 | 4.3 | 10.4 | 0.00 | 0.00 | 0.00 | 73 | 1011.8 |
| 20260505224905 | 56 | 41 | 4.3 | 7.8 | 0.00 | 0.00 | 0.00 | 73 | 1011.7 |
| 20260505224404 | 56 | 53 | 2.6 | 6.1 | 0.00 | 0.00 | 0.00 | 73 | 1011.7 |
| 20260505223904 | 56 | 26 | 4.3 | 8.7 | 0.00 | 0.00 | 0.00 | 72 | 1011.7 |
| 20260505221904 | 56 | 27 | 2.6 | 7.8 | 0.00 | 0.00 | 0.00 | 71 | 1011.6 |
| 20260505221404 | 56 | 18 | 4.3 | 7.8 | 0.00 | 0.00 | 0.00 | 71 | 1011.6 |
| 20260505220903 | 56 | 23 | 4.3 | 8.7 | 0.00 | 0.00 | 0.00 | 71 | 1011.6 |
| 20260505220404 | 56 | 13 | 4.3 | 8.7 | 0.00 | 0.00 | 0.00 | 70 | 1011.6 |
| 20260505215904 | 56 | 22 | 4.3 | 7.8 | 0.00 | 0.00 | 0.00 | 70 | 1011.6 |
| 20260505215405 | 57 | 19 | 4.3 | 7.8 | 0.00 | 0.00 | 0.00 | 70 | 1011.6 |
| 20260505214904 | 57 | 13 | 4.3 | 10.4 | 0.00 | 0.00 | 0.00 | 70 | 1011.6 |
| 20260505214405 | 57 | 0 | 3.5 | 6.1 | 0.00 | 0.00 | 0.00 | 70 | 1011.6 |
| 20260505213904 | 57 | 21 | 2.6 | 7.0 | 0.00 | 0.00 | 0.00 | 70 | 1011.6 |
| 20260505213404 | 57 | 9 | 3.5 | 7.0 | 0.00 | 0.00 | 0.00 | 70 | 1011.6 |
| 20260505212904 | 57 | 6 | 2.6 | 8.7 | 0.00 | 0.00 | 0.00 | 70 | 1011.7 |
| 20260505212404 | 57 | 3 | 3.5 | 7.8 | 0.00 | 0.00 | 0.00 | 69 | 1011.7 |
| 20260505211904 | 57 | 10 | 3.5 | 8.7 | 0.00 | 0.00 | 0.00 | 69 | 1011.7 |
| 20260505211404 | 57 | 3 | 1.7 | 6.1 | 0.00 | 0.00 | 0.00 | 70 | 1011.6 |
| 20260505210904 | 57 | 4 | 2.6 | 6.1 | 0.00 | 0.00 | 0.00 | 70 | 1011.6 |
| 20260505205904 | 57 | 7 | 2.6 | 7.8 | 0.00 | 0.00 | 0.00 | 69 | 1011.6 |
| 20260505204904 | 58 | 30 | 1.7 | 6.1 | 0.00 | 0.00 | 0.00 | 69 | 1011.6 |
| 20260505204404 | 58 | 2 | 3.5 | 6.1 | 0.00 | 0.00 | 0.00 | 69 | 1011.6 |
| 20260505203904 | 58 | 8 | 2.6 | 6.1 | 0.00 | 0.00 | 0.00 | 69 | 1011.5 |
| 20260505203405 | 58 | 25 | 3.5 | 7.8 | 0.00 | 0.00 | 0.00 | 69 | 1011.5 |
| 20260505202904 | 58 | 42 | 2.6 | 5.2 | 0.00 | 0.00 | 0.00 | 69 | 1011.6 |
| 20260505202404 | 58 | 18 | 2.6 | 7.0 | 0.00 | 0.00 | 0.00 | 69 | 1011.5 |
| 20260505201903 | 58 | 56 | 2.6 | 5.2 | 0.00 | 0.00 | 0.00 | 69 | 1011.5 |
| 20260505200903 | 58 | 36 | 2.6 | 5.2 | 0.00 | 0.00 | 0.00 | 68 | 1011.4 |
| 20260505200404 | 58 | 14 | 2.6 | 5.2 | 0.00 | 0.00 | 0.00 | 68 | 1011.4 |
| 20260505195904 | 58 | 27 | 3.5 | 5.2 | 0.00 | 0.00 | 0.00 | 68 | 1011.4 |
| 20260505195403 | 58 | 21 | 4.3 | 7.0 | 0.00 | 0.00 | 0.00 | 68 | 1011.4 |
| 20260505194904 | 59 | 29 | 2.6 | 7.8 | 0.00 | 0.00 | 0.00 | 67 | 1011.3 |
| 20260505194403 | 59 | 8 | 3.5 | 8.7 | 0.00 | 0.00 | 0.00 | 67 | 1011.3 |
| 20260505193403 | 59 | 21 | 2.6 | 7.0 | 0.00 | 0.00 | 0.00 | 67 | 1011.2 |
| 20260505192904 | 59 | 9 | 2.6 | 7.0 | 0.00 | 0.00 | 0.00 | 67 | 1011.1 |
| 20260505192404 | 59 | 0 | 4.3 | 7.0 | 0.00 | 0.00 | 0.00 | 67 | 1011.1 |
| 20260505191903 | 59 | 15 | 4.3 | 7.0 | 0.00 | 0.00 | 0.00 | 66 | 1011.1 |
| 20260505191405 | 59 | 12 | 2.6 | 7.8 | 0.00 | 0.00 | 0.00 | 66 | 1011.1 |
| 20260505190404 | 59 | 4 | 3.5 | 7.0 | 0.00 | 0.00 | 0.00 | 66 | 1011.0 |
| 20260505185904 | 59 | 27 | 4.3 | 10.4 | 0.00 | 0.00 | 0.00 | 66 | 1011.1 |
| 20260505185403 | 60 | 9 | 3.5 | 7.0 | 0.00 | 0.00 | 0.00 | 67 | 1011.0 |
| 20260505184904 | 60 | 6 | 4.3 | 7.8 | 0.00 | 0.00 | 0.00 | 66 | 1011.0 |
| 20260505184404 | 60 | 346 | 4.3 | 10.4 | 0.00 | 0.00 | 0.00 | 66 | 1010.9 |
| 20260505183904 | 60 | 356 | 3.5 | 8.7 | 0.00 | 0.00 | 0.00 | 66 | 1010.9 |
| 20260505183404 | 60 | 354 | 4.3 | 6.1 | 0.00 | 0.00 | 0.00 | 65 | 1010.9 |
| 20260505182903 | 60 | 2 | 3.5 | 6.1 | 0.00 | 0.00 | 0.00 | 64 | 1010.9 |
| 20260505182405 | 60 | 12 | 2.6 | 6.1 | 0.00 | 0.00 | 0.00 | 63 | 1010.8 |
| 20260505181904 | 60 | 6 | 1.7 | 7.0 | 0.00 | 0.00 | 0.00 | 63 | 1010.8 |
| 20260505180904 | 60 | 28 | 4.3 | 7.0 | 0.00 | 0.00 | 0.00 | 62 | 1010.9 |
| 20260505180404 | 60 | 46 | 1.7 | 6.1 | 0.00 | 0.00 | 0.00 | 63 | 1010.9 |
| 20260505175904 | 60 | 22 | 3.5 | 6.1 | 0.00 | 0.00 | 0.00 | 63 | 1010.8 |
| 20260505175405 | 60 | 13 | 4.3 | 6.1 | 0.00 | 0.00 | 0.00 | 63 | 1010.9 |
| 20260505174904 | 60 | 36 | 2.6 | 5.2 | 0.00 | 0.00 | 0.00 | 63 | 1011.0 |
| 20260505173904 | 60 | 14 | 3.5 | 6.1 | 0.00 | 0.00 | 0.00 | 63 | 1010.9 |
| 20260505173403 | 60 | 38 | 4.3 | 6.1 | 0.00 | 0.00 | 0.00 | 62 | 1011.0 |
| 20260505172905 | 60 | 28 | 3.5 | 7.0 | 0.00 | 0.00 | 0.00 | 62 | 1011.0 |
| 20260505172403 | 60 | 34 | 2.6 | 8.7 | 0.00 | 0.00 | 0.00 | 62 | 1010.9 |
| 20260505171903 | 60 | 17 | 4.3 | 7.8 | 0.00 | 0.00 | 0.00 | 62 | 1011.0 |
| 20260505171405 | 60 | 13 | 3.5 | 6.1 | 0.00 | 0.00 | 0.00 | 62 | 1011.0 |
| 20260505170903 | 60 | 38 | 3.5 | 10.4 | 0.00 | 0.00 | 0.00 | 62 | 1011.0 |
| 20260505170404 | 60 | 36 | 1.7 | 5.2 | 0.00 | 0.00 | 0.00 | 62 | 1011.0 |
| 20260505165905 | 60 | 15 | 5.2 | 8.7 | 0.00 | 0.00 | 0.00 | 61 | 1011.1 |
| 20260505164905 | 61 | 37 | 4.3 | 7.8 | 0.00 | 0.00 | 0.00 | 61 | 1011.2 |
| 20260505164403 | 61 | 31 | 2.6 | 7.8 | 0.00 | 0.00 | 0.00 | 61 | 1011.2 |
| 20260505163903 | 61 | 36 | 2.6 | 7.8 | 0.00 | 0.00 | 0.00 | 61 | 1011.1 |
| 20260505163405 | 61 | 30 | 5.2 | 8.7 | 0.00 | 0.00 | 0.00 | 61 | 1011.1 |
| 20260505162903 | 61 | 35 | 5.2 | 8.7 | 0.00 | 0.00 | 0.00 | 60 | 1011.1 |
| 20260505162403 | 61 | 26 | 4.3 | 7.8 | 0.00 | 0.00 | 0.00 | 61 | 1011.1 |
| 20260505161905 | 61 | 31 | 4.3 | 8.7 | 0.00 | 0.00 | 0.00 | 62 | 1011.1 |
| 20260505161404 | 61 | 17 | 5.2 | 7.8 | 0.00 | 0.00 | 0.00 | 61 | 1011.0 |
| 20260505160904 | 61 | 37 | 2.6 | 8.7 | 0.00 | 0.00 | 0.00 | 61 | 1011.1 |
| 20260505152904 | 62 | 35 | 4.3 | 7.8 | 0.00 | 0.00 | 0.00 | 60 | 1011.2 |
| 20260505151906 | 62 | 10 | 4.3 | 7.8 | 0.00 | 0.00 | 0.00 | 61 | 1011.2 |
| 20260505150904 | 62 | 14 | 4.3 | 7.8 | 0.00 | 0.00 | 0.00 | 60 | 1011.3 |
| 20260505150405 | 62 | 30 | 4.3 | 8.7 | 0.00 | 0.00 | 0.00 | 60 | 1011.3 |
| 20260505140403 | 61 | 19 | 2.6 | 4.3 | 0.00 | 0.00 | 0.00 | 62 | 1011.5 |
| 20260505124903 | 60 | 38 | 5.2 | 10.4 | 0.00 | 0.00 | 0.00 | 63 | 1011.9 |
| 20260505124403 | 61 | 47 | 4.3 | 10.4 | 0.00 | 0.00 | 0.00 | 63 | 1012.0 |
| 20260505123904 | 61 | 34 | 4.3 | 10.4 | 0.00 | 0.00 | 0.00 | 64 | 1012.0 |
| 20260505122904 | 60 | 35 | 7.0 | 10.4 | 0.00 | 0.00 | 0.00 | 64 | 1012.0 |
| 20260505122405 | 60 | 30 | 4.3 | 10.4 | 0.00 | 0.00 | 0.00 | 64 | 1011.9 |
| 20260505121904 | 60 | 10 | 5.2 | 10.4 | 0.00 | 0.00 | 0.00 | 65 | 1011.9 |
| 20260505121404 | 60 | 19 | 4.3 | 8.7 | 0.00 | 0.00 | 0.00 | 65 | 1011.9 |
| 20260505120903 | 59 | 23 | 6.1 | 11.3 | 0.00 | 0.00 | 0.00 | 65 | 1011.9 |
| 20260505115903 | 59 | 45 | 4.3 | 10.4 | 0.00 | 0.00 | 0.00 | 65 | 1012.0 |
| 20260505115405 | 59 | 32 | 7.0 | 12.2 | 0.00 | 0.00 | 0.00 | 65 | 1012.0 |
| 20260505114904 | 59 | 39 | 5.2 | 10.4 | 0.00 | 0.00 | 0.00 | 66 | 1012.0 |
| 20260505114404 | 59 | 46 | 5.2 | 10.4 | 0.00 | 0.00 | 0.00 | 65 | 1012.0 |
| 20260505113904 | 59 | 37 | 5.2 | 10.4 | 0.00 | 0.00 | 0.00 | 65 | 1012.0 |
| 20260505113404 | 60 | 48 | 5.2 | 12.2 | 0.00 | 0.00 | 0.00 | 64 | 1012.0 |
| 20260505112904 | 60 | 47 | 6.1 | 11.3 | 0.00 | 0.00 | 0.00 | 64 | 1012.0 |
| 20260505112404 | 60 | 26 | 6.1 | 12.2 | 0.00 | 0.00 | 0.00 | 63 | 1012.0 |
| 20260505111904 | 61 | 32 | 7.8 | 12.2 | 0.00 | 0.00 | 0.00 | 61 | 1012.1 |
| 20260505111403 | 61 | 36 | 4.3 | 12.2 | 0.00 | 0.00 | 0.00 | 62 | 1012.0 |
| 20260505110404 | 60 | 13 | 4.3 | 13.9 | 0.00 | 0.00 | 0.00 | 64 | 1012.1 |
| 20260505101903 | 59 | 28 | 6.1 | 11.3 | 0.00 | 0.00 | 0.00 | 65 | 1012.4 |
| 20260505100905 | 59 | 25 | 5.2 | 12.2 | 0.00 | 0.00 | 0.00 | 66 | 1012.4 |
| 20260505095903 | 59 | 20 | 6.1 | 13.0 | 0.00 | 0.00 | 0.00 | 67 | 1012.4 |
| 20260505095405 | 59 | 21 | 7.0 | 13.0 | 0.00 | 0.00 | 0.00 | 66 | 1012.4 |
| 20260505094904 | 59 | 34 | 5.2 | 13.0 | 0.00 | 0.00 | 0.00 | 67 | 1012.4 |
| 20260505094405 | 59 | 35 | 7.0 | 13.0 | 0.00 | 0.00 | 0.00 | 67 | 1012.5 |
| 20260505093904 | 59 | 29 | 4.3 | 10.4 | 0.00 | 0.00 | 0.00 | 68 | 1012.5 |
| 20260505093404 | 59 | 35 | 4.3 | 10.4 | 0.00 | 0.00 | 0.00 | 67 | 1012.5 |
| 20260505092405 | 60 | 3 | 3.5 | 10.4 | 0.00 | 0.00 | 0.00 | 66 | 1012.4 |
| 20260505091903 | 61 | 29 | 5.2 | 10.4 | 0.00 | 0.00 | 0.00 | 66 | 1012.4 |
| 20260505091404 | 60 | 41 | 5.2 | 10.4 | 0.00 | 0.00 | 0.00 | 66 | 1012.5 |
| 20260505090904 | 60 | 32 | 6.1 | 10.4 | 0.00 | 0.00 | 0.00 | 66 | 1012.5 |
| 20260505085904 | 60 | 44 | 5.2 | 10.4 | 0.00 | 0.00 | 0.00 | 68 | 1012.6 |
| 20260505085404 | 59 | 27 | 5.2 | 12.2 | 0.00 | 0.00 | 0.00 | 67 | 1012.7 |
| 20260505084904 | 60 | 13 | 7.8 | 13.9 | 0.00 | 0.00 | 0.00 | 68 | 1012.7 |
| 20260505083904 | 59 | 28 | 5.2 | 12.2 | 0.00 | 0.00 | 0.00 | 69 | 1012.7 |
| 20260505082904 | 58 | 33 | 5.2 | 11.3 | 0.00 | 0.00 | 0.00 | 71 | 1012.6 |
| 20260505082404 | 59 | 20 | 6.1 | 10.4 | 0.00 | 0.00 | 0.00 | 70 | 1012.6 |
| 20260505081905 | 59 | 6 | 5.2 | 8.7 | 0.00 | 0.00 | 0.00 | 71 | 1012.6 |
| 20260505081404 | 58 | 6 | 5.2 | 10.4 | 0.00 | 0.00 | 0.00 | 69 | 1012.6 |
| 20260505075904 | 59 | 28 | 6.1 | 11.3 | 0.00 | 0.00 | 0.00 | 68 | 1012.6 |
| 20260505074904 | 58 | 28 | 4.3 | 7.8 | 0.00 | 0.00 | 0.00 | 71 | 1012.5 |
| 20260505074404 | 58 | 48 | 3.5 | 7.8 | 0.00 | 0.00 | 0.00 | 71 | 1012.5 |
| 20260505073904 | 58 | 49 | 1.7 | 6.1 | 0.00 | 0.00 | 0.00 | 76 | 1012.5 |
| 20260505073404 | 57 | 60 | 2.6 | 7.8 | 0.00 | 0.00 | 0.00 | 77 | 1012.5 |
| 20260505072903 | 57 | 26 | 2.6 | 7.8 | 0.00 | 0.00 | 0.00 | 78 | 1012.4 |
| 20260505072404 | 56 | 32 | 1.7 | 5.2 | 0.00 | 0.00 | 0.00 | 81 | 1012.4 |
| 20260505071905 | 55 | 30 | 2.6 | 7.8 | 0.00 | 0.00 | 0.00 | 82 | 1012.5 |
| 20260505071404 | 55 | 35 | 3.5 | 7.8 | 0.00 | 0.00 | 0.00 | 83 | 1012.6 |
| 20260505070904 | 55 | 32 | 4.3 | 7.8 | 0.00 | 0.00 | 0.00 | 83 | 1012.6 |
| 20260505070405 | 54 | 50 | 2.6 | 8.7 | 0.00 | 0.00 | 0.00 | 84 | 1012.6 |
| 20260505065905 | 54 | 40 | 4.3 | 8.7 | 0.00 | 0.00 | 0.00 | 84 | 1012.7 |
| 20260505065404 | 54 | 19 | 3.5 | 7.8 | 0.00 | 0.00 | 0.00 | 84 | 1012.7 |
| 20260505064904 | 54 | 5 | 2.6 | 5.2 | 0.00 | 0.00 | 0.00 | 85 | 1012.8 |
| 20260505064404 | 53 | 9 | 1.7 | 7.8 | 0.00 | 0.00 | 0.00 | 85 | 1012.8 |
| 20260505063904 | 53 | 39 | 1.7 | 4.3 | 0.00 | 0.00 | 0.00 | 85 | 1012.8 |
| 20260505062404 | 53 | 16 | 2.6 | 5.2 | 0.00 | 0.00 | 0.00 | 86 | 1013.0 |
| 20260505061405 | 53 | 16 | 3.5 | 7.8 | 0.00 | 0.00 | 0.00 | 85 | 1012.9 |
| 20260505060904 | 53 | 21 | 2.6 | 7.0 | 0.00 | 0.00 | 0.00 | 85 | 1012.9 |
| 20260505060403 | 53 | 15 | 2.6 | 5.2 | 0.00 | 0.00 | 0.00 | 86 | 1012.8 |
| 20260505055403 | 53 | 50 | 2.6 | 7.0 | 0.00 | 0.00 | 0.00 | 85 | 1012.8 |
| 20260505054904 | 53 | 20 | 2.6 | 7.8 | 0.00 | 0.00 | 0.00 | 85 | 1012.7 |
| 20260505053904 | 53 | 20 | 4.3 | 7.8 | 0.00 | 0.00 | 0.00 | 85 | 1012.7 |
| 20260505053403 | 53 | 7 | 4.3 | 7.0 | 0.00 | 0.00 | 0.00 | 85 | 1012.6 |
| 20260505052904 | 53 | 10 | 4.3 | 7.8 | 0.00 | 0.00 | 0.00 | 85 | 1012.6 |
| 20260505052404 | 53 | 15 | 2.6 | 6.1 | 0.00 | 0.00 | 0.00 | 85 | 1012.7 |
| 20260505051404 | 54 | 47 | 2.6 | 2.6 | 0.00 | 0.00 | 0.00 | 85 | 1012.6 |
| 20260505050904 | 54 | 34 | 2.6 | 5.2 | 0.00 | 0.00 | 0.00 | 85 | 1012.5 |
| 20260505050404 | 54 | 54 | 2.6 | 5.2 | 0.00 | 0.00 | 0.00 | 85 | 1012.6 |
| 20260505041406 | 54 | 35 | 2.6 | 5.2 | 0.00 | 0.00 | 0.00 | 84 | 1012.6 |
| 20260505040903 | 54 | 39 | 1.7 | 6.1 | 0.00 | 0.00 | 0.00 | 84 | 1012.6 |
| 20260505040403 | 54 | 12 | 3.5 | 7.8 | 0.00 | 0.00 | 0.00 | 84 | 1012.6 |
| 20260505035405 | 54 | 34 | 2.6 | 6.1 | 0.00 | 0.00 | 0.00 | 84 | 1012.7 |
| 20260505034903 | 55 | 47 | 2.6 | 7.0 | 0.00 | 0.00 | 0.00 | 83 | 1012.7 |
| 20260505034404 | 55 | 33 | 1.7 | 5.2 | 0.00 | 0.00 | 0.00 | 83 | 1012.7 |
| 20260505033904 | 55 | 17 | 3.5 | 5.2 | 0.00 | 0.00 | 0.00 | 83 | 1012.8 |
| 20260505033404 | 55 | 26 | 3.5 | 6.1 | 0.00 | 0.00 | 0.00 | 83 | 1012.8 |
| 20260505032904 | 55 | 39 | 3.5 | 7.0 | 0.00 | 0.00 | 0.00 | 83 | 1012.8 |
| 20260505032404 | 55 | 34 | 2.6 | 6.1 | 0.00 | 0.00 | 0.00 | 83 | 1012.7 |